Home   Weather   Rostov-on-Don   Past weeks

Flag for Russia Past Weather in Rostov-on-Don, Russia — Yesterday and Last 2 Weeks

Now
27 °F

Low level haze.


Feels Like: 12 °F
Forecast: 34 / 38 °F
Wind: 22 mph from West

Location: Rostov-Na-Donu

Current Time: Dec 8, 2016 at 2:58:10 pm

Latest Report: Dec 8, 2016 at 2:00 pm


Visibility: N/A

Pressure: 30.36 "Hg

Humidity: 54%

Dew Point: 12 °F

Location of Rostov-on-DonLocation

Past Weather in Rostov-on-Don — Graph

°F

Rostov-on-Don Temperature Yesterday

Maximum temperature yesterday: 36 °F (at 12:30 am)
Minimum temperature yesterday: 12 °F (at 10:30 pm)
Average temperature yesterday: 22 °F

High & Low Weather Summary for the Past Weeks

 TemperatureHumidityPressure
High52 °F (Nov 28, 12:00 pm)100% (Nov 27, 11:00 pm)30.63 "Hg (Nov 27, 11:00 pm)
Low10 °F (Dec 8, 1:00 am)54% (Dec 7, 1:30 pm)29.56 "Hg (Dec 3, 7:00 am)
Average30 °F82%30.09 "Hg
* Reported Nov 23 1:00 pm — Dec 8 1:30 pm, Rostov-on-Don, Weather by CustomWeather, © 2016

Note: Actual official high and low records may vary slightly from our data, if they occured in-between our weather recording intervals... More about our weather records

Advertising

Rostov-on-Don Weather History for the Previous 24 Hours

Scroll right to see more
 ConditionsComfort  
Time TempWeatherWind HumidityBarometerVisibility
1:30 pm
Thu, Dec 8
27 °FLow level haze.20 mph54%30.39 "HgN/A
1:00 pm25 °FLow level haze.17 mph63%30.39 "HgN/A
12:30 pm25 °FPassing clouds.17 mph63%30.42 "HgN/A
12:00 pm25 °FPassing clouds.15 mph63%30.42 "HgN/A
11:30 am23 °FPassing clouds.13 mph68%30.45 "HgN/A
11:00 am19 °FPassing clouds.13 mph86%30.45 "Hg5 mi
10:30 am19 °FPassing clouds.10 mph86%30.48 "Hg4 mi
10:00 am19 °FPassing clouds.10 mph79%30.48 "Hg5 mi
9:00 am18 °FPassing clouds.13 mph79%30.51 "HgN/A
8:30 am18 °FSunny.10 mph79%30.51 "Hg10 mi
8:00 am16 °FSunny.10 mph79%30.51 "Hg10 mi
7:30 am16 °FClear.13 mph79%30.51 "Hg5 mi
7:00 am14 °FClear.13 mph79%30.54 "Hg5 mi
6:30 am14 °FClear.10 mph79%30.54 "Hg5 mi
6:00 am14 °FClear.13 mph73%30.54 "Hg5 mi
5:00 am12 °FClear.8 mph73%30.54 "Hg5 mi
4:30 am10 °FClear.6 mph79%30.54 "Hg5 mi
4:00 am10 °FClear.6 mph79%30.54 "Hg5 mi
3:30 am10 °FClear.6 mph72%30.54 "Hg5 mi
3:00 am10 °FClear.8 mph72%30.54 "Hg5 mi
2:30 am10 °FClear.8 mph72%30.54 "Hg5 mi
2:00 am10 °FClear.8 mph72%30.54 "Hg5 mi
1:30 am10 °FClear.10 mph72%30.54 "Hg5 mi
1:00 am10 °FClear.8 mph79%30.54 "Hg5 mi
12:30 am12 °FClear.6 mph73%30.54 "Hg5 mi
12:00 am12 °FClear.8 mph73%30.54 "Hg5 mi
11:30 pm
Wed, Dec 7
12 °FClear.8 mph73%30.54 "Hg5 mi
11:00 pm12 °FClear.8 mph73%30.51 "Hg5 mi
10:30 pm12 °FClear.6 mph73%30.51 "Hg5 mi
10:00 pm14 °FClear.8 mph67%30.51 "Hg5 mi
9:30 pm14 °FClear.8 mph67%30.48 "Hg5 mi
9:00 pm14 °FClear.10 mph67%30.48 "Hg5 mi
8:00 pm14 °FClear.8 mph67%30.45 "Hg5 mi
7:30 pm16 °FClear.8 mph67%30.45 "Hg5 mi
7:00 pm16 °FClear.8 mph67%30.45 "Hg5 mi
6:30 pm18 °FClear.6 mph68%30.42 "Hg5 mi
6:00 pm18 °FClear.6 mph68%30.39 "Hg5 mi
5:30 pm19 °FPassing clouds.8 mph63%30.39 "Hg5 mi
5:00 pm19 °FPassing clouds.6 mph58%30.36 "Hg5 mi
4:30 pm21 °FPassing clouds.8 mph58%30.36 "HgN/A
4:00 pm21 °FSunny.10 mph58%30.33 "Hg10 mi
3:30 pm21 °FSunny.10 mph58%30.33 "Hg10 mi
3:00 pm21 °FPassing clouds.13 mph54%30.30 "HgN/A
2:30 pm21 °FPassing clouds.10 mph54%30.30 "HgN/A
2:00 pm21 °FPassing clouds.10 mph58%30.30 "HgN/A
Weather by CustomWeather, © 2016

See weather overviewHow to use our weather pages